Location: Ford County Road and Bridge Department
(37.7686°N, 99.9762°W)
Time: 15:37:01
(UTC+00:00)

Cosmos-2242 - Pass Details

Date: 18 January 2020
Orbit: 590 x 618 km, 82.5° (Epoch: 24 February)

Event Time Altitude Azimuth Distance (km) Brightness Sun altitude
Rises 01:41:38 0° 353° (N) 2,875 6.5 -22.4°
Reaches altitude 10° 01:43:52 10° 355° (N) 1,962 5.6 -22.9°
Enters shadow 01:46:00 28° 358° (N) 1,132 4.3 -23.3°
Exits shadow 01:52:15 11° 171° (S) 1,835 5.4 -24.5°
Drops below altitude 10° 01:52:23 11° 171° (S) 1,886 5.5 -24.5°
Sets 01:54:40 0° 172° (S) 2,823 6.5 -25.0°
